[[{"header":{"parameterUnit":"m.s-1","parameterCategory":1,"la1":30.2992,"la2":30.254,"lo1":-89.0895,"lo2":-89.0443,"dy":0.0025,"dx":0.0025,"nx":19,"ny":19,"refTime":"2026-03-18T09:00:00:Z","depth":0,"parameterNumber":2,"parameterNumberName":"U-component_of_WINDS"},"data":[0,0,0,-3.4999,-3.5002,-3.5134,-3.5135,-3.5325,-3.5326,0,0,0,0,0,0,0,0,0,0,0,-3.4972,-3.4974,-3.4999,-3.5003,-3.5134,-3.5135,-3.5324,-3.5326,0,0,0,0,0,0,0,0,0,0,0,-3.4971,-3.4973,-3.4976,-3.5003,-3.5134,-3.5135,-3.5324,-3.5217,0,0,0,0,0,0,0,0,0,0,-3.5085,-3.5072,-3.4973,-3.4976,-3.5004,-3.5134,-3.5135,-3.5211,-3.5224,-3.5274,0,-3.5321,0,-3.5327,-3.534,-3.5341,0,0,0,-3.4994,-3.5062,-3.5087,-3.4976,-3.5005,-3.5134,-3.5072,-3.5218,-3.5232,-3.529,-3.5323,-3.533,-3.533,-3.5342,-3.5343,-3.5661,-3.5663,0,0,-3.4986,-3.5003,-3.5077,-3.5096,-3.5076,-3.5068,-3.5076,-3.5226,-3.5264,-3.5324,-3.5334,-3.5333,-3.5343,-3.5345,-3.5659,-3.5662,0,0,0,-3.4971,-3.4998,-3.5018,-3.5089,-3.5111,-3.5072,-3.5082,-3.5257,-3.5262,-3.5336,-3.5335,-3.5344,-3.5347,-3.5657,-3.566,-3.5771,0,0,0,-3.4967,-3.4989,-3.5016,-3.5027,-3.5109,-3.5186,-3.511,-3.5252,-3.5268,-3.5334,-3.5344,-3.5349,-3.5655,-3.5659,-3.5764,-3.5822,0,0,0,-3.496,-3.4988,-3.5011,-3.5028,-3.5085,-3.5183,-3.5196,-3.5255,-3.5269,-3.5341,-3.535,-3.5654,-3.5658,-3.5757,-3.581,-3.5911,0,0,0,-3.4957,-3.5108,-3.5013,-3.5182,-3.5084,-3.525,-3.5195,-3.5318,-3.5393,-3.5345,-3.5655,-3.566,-3.5755,-3.5803,-3.5904,-3.6,-3.6041,0,0,-3.5156,-3.5132,-3.523,-3.515,-3.5337,-3.5228,-3.5432,-3.5486,-3.5478,-3.5601,-3.5608,-3.5766,-3.581,-3.591,-3.6264,-3.6297,0,0,0,-3.5299,-3.537,-3.5416,-3.5489,-3.5533,-3.5577,-3.5597,-3.5617,-3.5721,-3.5544,-3.5829,-3.5854,-3.5912,-3.5957,-3.5985,-3.6035,-3.5681,-3.5681,-3.568,-3.5606,-3.5588,-3.5749,-3.5747,-3.5818,-3.5838,-3.5895,-3.5925,-3.5885,-3.5953,-3.599,-3.6207,-3.626,-3.6281,-3.6333,-3.6038,-3.6038,-3.6038,-3.6039,-3.5898,-3.5996,-3.594,-3.6076,-3.6057,-3.6171,-3.6197,-3.6165,-3.6269,-3.6177,-3.6227,-3.613,-3.6318,-3.6362,-3.6047,-3.6046,-3.6045,-3.6044,-3.6043,-3.6099,-3.6142,-3.6164,-3.6268,-3.635,-3.6342,-3.6446,-3.6423,-3.6403,-3.6453,-3.649,-3.6488,-3.6485,-3.6472,-3.6472,-3.6473,-3.6474,-3.6474,-3.6475,-3.6298,-3.6319,-3.6409,-3.6469,-3.6514,-3.6569,-3.6591,-3.6634,-3.6677,-3.6652,-3.6652,-3.6607,-3.6339,-3.6273,-3.6487,-3.6484,-3.6483,-3.6482,-3.6481,-3.6604,-3.6532,-3.667,-3.6715,-3.6785,-3.6869,-3.6838,-3.6929,-3.6961,-3.7013,-3.6957,-3.6761,-3.6735,-3.6713,-3.6658,-3.6959,-3.6959,-3.6959,-3.6959,-3.6775,-3.6759,-3.6896,-3.6969,-3.7038,-3.7025,-3.7183,-3.7202,-3.721,-3.723,-3.7182,-3.7107,-3.7086,-3.7073,-3.7042,-3.6991,-3.737,-3.737,-3.7371,-3.6962,-3.6952,-3.7091,-3.7098,-3.7151,-3.7198,-3.7347,-3.7433,-3.7427,-3.7387,-3.7245,-3.7227,-3.7106,-3.7067,-3.7025,-3.6978,-3.6884,0,0]},{"header":{"parameterUnit":"m.s-1","parameterCategory":1,"la1":30.2992,"la2":30.254,"lo1":-89.0895,"lo2":-89.0443,"dy":0.0025,"dx":0.0025,"nx":19,"ny":19,"refTime":"2026-03-18T09:00:00:Z","depth":0,"parameterNumber":3,"parameterNumberName":"V-component_of_WINDS"},"data":[0,0,0,-2.2762,-2.2763,-2.28,-2.28,-2.2862,-2.2863,0,0,0,0,0,0,0,0,0,0,0,-2.2759,-2.276,-2.2761,-2.2763,-2.28,-2.28,-2.2862,-2.2863,0,0,0,0,0,0,0,0,0,0,0,-2.2759,-2.276,-2.2761,-2.2763,-2.28,-2.28,-2.2862,-2.2828,0,0,0,0,0,0,0,0,0,0,-2.2789,-2.2796,-2.2759,-2.2761,-2.2763,-2.28,-2.28,-2.2827,-2.2831,-2.2851,0,-2.2872,0,-2.2869,-2.2868,-2.2868,0,0,0,-2.2756,-2.2793,-2.2795,-2.2761,-2.2764,-2.28,-2.2781,-2.2829,-2.2833,-2.2856,-2.2873,-2.2875,-2.287,-2.2868,-2.2869,-2.301,-2.3011,0,0,-2.2754,-2.2771,-2.2792,-2.2798,-2.2794,-2.278,-2.2783,-2.2831,-2.285,-2.2873,-2.2876,-2.2871,-2.2869,-2.2869,-2.3009,-2.3011,0,0,0,-2.2752,-2.277,-2.277,-2.2796,-2.2802,-2.2782,-2.2784,-2.2848,-2.2847,-2.2876,-2.2871,-2.2869,-2.287,-2.3008,-2.301,-2.3075,0,0,0,-2.2751,-2.2769,-2.277,-2.278,-2.2801,-2.2826,-2.28,-2.2843,-2.2848,-2.2871,-2.2869,-2.2871,-2.3007,-2.3009,-2.3071,-2.3104,0,0,0,-2.2754,-2.2769,-2.2777,-2.2781,-2.2798,-2.2824,-2.2826,-2.2844,-2.2846,-2.2868,-2.2871,-2.3006,-2.3009,-2.3067,-2.3098,-2.3147,0,0,0,-2.2761,-2.2835,-2.2779,-2.2858,-2.2798,-2.2864,-2.2825,-2.2874,-2.2901,-2.287,-2.3007,-2.301,-2.3066,-2.3094,-2.3143,-2.3192,-2.3214,0,0,-2.2863,-2.2847,-2.2893,-2.2844,-2.2925,-2.2857,-2.2948,-2.2956,-2.2943,-2.2988,-2.2992,-2.3072,-2.3097,-2.3146,-2.3327,-2.3345,0,0,0,-2.2931,-2.2964,-2.2981,-2.3008,-2.3017,-2.3027,-2.3019,-2.3022,-2.3061,-2.297,-2.3102,-2.3116,-2.3144,-2.3167,-2.3182,-2.3205,-2.3021,-2.302,-2.302,-2.31,-2.3078,-2.3152,-2.3135,-2.3162,-2.3153,-2.3173,-2.3175,-2.3146,-2.3177,-2.3191,-2.3304,-2.3331,-2.3342,-2.3367,-2.3214,-2.3214,-2.3215,-2.3215,-2.3247,-2.3291,-2.325,-2.3307,-2.3283,-2.333,-2.3325,-2.3302,-2.3343,-2.3292,-2.3315,-2.3263,-2.3362,-2.3382,-2.322,-2.3219,-2.3218,-2.3218,-2.3217,-2.3357,-2.3374,-2.3376,-2.3413,-2.3443,-2.3422,-2.3463,-2.344,-2.3418,-2.3442,-2.3454,-2.3453,-2.345,-2.3449,-2.3449,-2.345,-2.345,-2.345,-2.3451,-2.347,-2.347,-2.3508,-2.3523,-2.3537,-2.3552,-2.3544,-2.3556,-2.3565,-2.3545,-2.3545,-2.3513,-2.3375,-2.3342,-2.3457,-2.3455,-2.3455,-2.3454,-2.3454,-2.363,-2.359,-2.3649,-2.3663,-2.3677,-2.3709,-2.3678,-2.3707,-2.3714,-2.3735,-2.3697,-2.3599,-2.3581,-2.3569,-2.3542,-2.3701,-2.3701,-2.3701,-2.3701,-2.3724,-2.3712,-2.3766,-2.379,-2.3811,-2.3789,-2.3855,-2.3849,-2.3836,-2.3839,-2.3812,-2.3773,-2.3762,-2.3751,-2.3735,-2.3709,-2.3907,-2.3908,-2.3908,-2.3822,-2.3811,-2.3872,-2.3859,-2.3869,-2.3878,-2.3939,-2.3968,-2.3945,-2.3916,-2.3841,-2.3833,-2.3769,-2.3749,-2.372,-2.3696,-2.3648,0,0]}]]